VNKTVQPR

Guest
Details From VNKT - Kathmandu Tribhuvan Intl
To VQPR - PARO
Flight Number -
Tags generated
Created
Modified
Stats Distance 239 nm / 442 km
Max Altitude 25,000 ft / 7,620 m
Waypoints 4
Social Downloads 4
Likes 0
Share VATSIM

Download

Looking for another format? Having issues loading an existing format? Contact us
Advertisement - Login to hide

Notes

Basic altitude profile: - Ascent Rate: 2500ft/min - Ascent Speed: 250kts - Cruise Altitude: 15000ft - Cruise Speed: 300kts - Descent Rate: 1500ft/min - Descent Speed: 250kts

Route

VNKT KTM G348 MECHI VQPR

ID Type Via Altitude Latitude Longitude Leg Dist Tot Dist Heading (true) Name
O VNKT APT - 0 ft / 0 m 27.69658˚ 85.35910˚ - 0 nm - Kathmandu Tribhuvan Intl
KTM VOR - 700 ft / 213 m 27.67472˚ 85.34917˚ 1 nm 1 nm 202° / 202° KATHMANDU VOR-DME
MECHI FIX G348 (AWY-HI) 25,000 ft / 7,620 m 26.76814˚ 88.18200˚ 160 nm 162 nm 109° / 110° -
O VQPR APT - 0 ft / 0 m 27.40319˚ 89.42461˚ 76 nm 238 nm 60° / 60° PARO

Altitude Profile

Advertisement - Login to hide

Weather


0- 5 10 15 20 25 30 35+ Temperature / ° C

Clouds and Precipitation
Forecast for 2018-05-25 00:00 UTC. Updated 4 hours ago

Ground ~20,000 ft ~40,000 ft Winds

VNKT

Details ICAO VNKT (KTM)
Name Kathmandu Tribhuvan Intl
Region Nepal
Timezone Asia/Kathmandu (UTC+5.8)
Stats Elevation 4,390 ft / 1,338 m (AMSL)
Location 27.696583° 85.359100°
Runways 1
Magnetic Variation 0.514° E

METAR

VNKT 250320Z VRB02KT 6000 FEW015 SCT030 25/20 Q1013 NOSIG

Decode

TAF

TAF VNKT 242300Z 2500/2524 4000 BR FEW010 SCT025 PROB30 2501/2503 2000 BR BECMG 2504/2505 14005KT 6000 FEW015 BECMG 2507/2509 25010KT 8000 FEW020 SCT100 PROB40 2508/2514 VRB12KT 4000 -TSRA FEW025CB BKN100 BECMG 2514/2515 21003KT 6000 FEW015 SCT100

Decode

Departure Runways

ID Width Length Bearing (true) Bearing (mag) Surface Threshold Offset Overrun Length
02 148 ft / 45 m 10,017 ft / 3,053 m 21.50° 20.99° Asphalt 0 ft / 0 m 0 ft / 0 m
20 148 ft / 45 m 10,017 ft / 3,053 m 201.51° 201.00° Asphalt 400 ft / 122 m 0 ft / 0 m

VQPR

Details ICAO VQPR (PBH)
Name PARO
Region Bhutan
Timezone Asia/Thimphu (UTC+6.0)
Stats Elevation 7,332 ft / 2,235 m (AMSL)
Location 27.403190° 89.424605°
Runways 1
Magnetic Variation 0.143° E

METAR

VQPR 250300Z 16004KT 6000 FEW008 SCT030 BKN090 18/12 Q1018

Decode

TAF

Not found

Destination Runways

ID Width Length Bearing (true) Bearing (mag) Surface Threshold Offset Overrun Length
15 95 ft / 29 m 6,462 ft / 1,970 m 150.65° 150.51° Asphalt 0 ft / 0 m 390 ft / 119 m
33 95 ft / 29 m 6,462 ft / 1,970 m 330.65° 330.51° Asphalt 0 ft / 0 m 217 ft / 66 m

Popular Alternatives